Tracking 19149 objects as of 22-Apr-2018
HD Live streaming from Space Station
objects crossing your sky now

FENGYUN 1C DEB

Track FENGYUN 1C DEB now!
10-day predictions


NORAD ID: 32407
Int'l Code: 1999-025CZT
Perigee: 425.8 km
Apogee: 715.8 km
Inclination: 98.5 °
Period: 95.9 minutes
Semi major axis: 6941 km
RCS: 0.0123 m2 (small)
Launch date: May 10, 1999
Source: People's Republic of China (PRC)
Launch site: Taiyaun Space Center, China (TSC)

Note: This is SATELLITE DEBRIS
aabbcc
Your satellite tracking list
Your tracking list is empty




NASA's NSSDC Master Catalog

Two Line Element Set (TLE):
1 32407U 99025CZT 18107.75879004 +.00005950 +00000-0 +29539-3 0  9998
2 32407 098.5028 294.8190 0208900 174.5663 185.7898 15.01037762190642
Source of the keplerian elements: AFSPC